SJX870 RCTP-ROAH

Flight info

Callsign SJX870
Flight time N/A
Altitude 41000
Route KUDOS1D KUDOS R595 SEDKU Y573 MJC Y57 VELNO
Aircraft A359/H-SDE2E3GHIJ3J4J5LM1ORWXY/LB1D1

Departure

Time N/A
Airport Taiwan Taoyuan International Airport (RCTP)

Arrival

Time 2026-04-23 05:00
Airport Naha International Airport (ROAH)
Time Latitude Longitude Altitude Speed Heading
2026-04-23 04:29 24.96661 123.73101 40848 ft 547 kts 96°
2026-04-23 04:29 24.96189 123.77286 40850 ft 552 kts 98°
2026-04-23 04:30 24.95221 123.84296 40842 ft 560 kts 99°
2026-04-23 04:30 24.94121 123.92856 40843 ft 567 kts 97°
2026-04-23 04:31 24.93179 124.01237 40838 ft 569 kts 97°
2026-04-23 04:31 24.92200 124.09892 40834 ft 570 kts 97°
2026-04-23 04:32 24.91179 124.18552 40834 ft 570 kts 97°
2026-04-23 04:32 24.90154 124.27192 40841 ft 567 kts 98°
2026-04-23 04:33 24.89141 124.35729 40841 ft 565 kts 98°
2026-04-23 04:33 24.88130 124.44240 40831 ft 553 kts 98°
2026-04-23 04:34 24.87127 124.52640 40825 ft 546 kts 98°
2026-04-23 04:34 24.85206 124.68608 40818 ft 544 kts 98°
2026-04-23 04:35 24.83213 124.85018 40825 ft 543 kts 98°
2026-04-23 04:35 24.81196 125.01503 40802 ft 543 kts 97°
2026-04-23 04:36 24.79154 125.17988 40801 ft 544 kts 97°
2026-04-23 04:36 24.78613 125.26257 40796 ft 541 kts 83°
2026-04-23 04:36 24.80584 125.34106 40801 ft 528 kts 58°
2026-04-23 04:37 24.88164 125.47889 40815 ft 525 kts 53°
2026-04-23 04:37 24.95959 125.61490 40834 ft 524 kts 54°
2026-04-23 04:38 25.02466 125.73034 40842 ft 525 kts 54°
2026-04-23 04:38 25.06316 125.79882 40838 ft 525 kts 54°
2026-04-23 04:39 25.10161 125.86730 40688 ft 522 kts 54°
2026-04-23 04:39 25.12045 125.90089 40016 ft 522 kts 54°
2026-04-23 04:39 25.13966 125.93512 39213 ft 526 kts 54°
2026-04-23 04:40 25.15899 125.96957 38420 ft 529 kts 54°
2026-04-23 04:40 25.17854 126.00443 37343 ft 536 kts 54°
2026-04-23 04:40 25.19819 126.03953 36530 ft 537 kts 54°
2026-04-23 04:40 25.21778 126.07458 35810 ft 537 kts 54°
2026-04-23 04:41 25.23740 126.10972 35062 ft 538 kts 54°
2026-04-23 04:41 25.25709 126.14500 34203 ft 541 kts 55°
2026-04-23 04:41 25.27691 126.18052 33261 ft 545 kts 55°
2026-04-23 04:41 25.29688 126.21632 32308 ft 547 kts 55°
2026-04-23 04:42 25.31690 126.25223 31359 ft 549 kts 56°
2026-04-23 04:42 25.33690 126.28816 30639 ft 547 kts 56°
2026-04-23 04:42 25.35674 126.32389 29991 ft 543 kts 56°
2026-04-23 04:42 25.37644 126.35936 29257 ft 539 kts 56°
2026-04-23 04:43 25.39592 126.39450 28572 ft 535 kts 56°
2026-04-23 04:43 25.41536 126.42957 27899 ft 532 kts 56°
2026-04-23 04:43 25.43464 126.46436 27229 ft 527 kts 56°
2026-04-23 04:43 25.45371 126.49880 26563 ft 522 kts 56°
2026-04-23 04:44 25.47236 126.53246 25926 ft 518 kts 56°
2026-04-23 04:44 25.49105 126.56623 25311 ft 513 kts 56°
2026-04-23 04:44 25.50960 126.59989 24676 ft 509 kts 56°
2026-04-23 04:44 25.52797 126.63334 24010 ft 508 kts 56°
2026-04-23 04:45 25.54625 126.66667 23366 ft 505 kts 56°
2026-04-23 04:45 25.56446 126.69987 22633 ft 502 kts 57°
2026-04-23 04:45 25.58247 126.73274 21946 ft 497 kts 57°
2026-04-23 04:45 25.60028 126.76527 21277 ft 490 kts 57°
2026-04-23 04:46 25.61782 126.79731 20656 ft 482 kts 58°
2026-04-23 04:46 25.63505 126.82881 20019 ft 474 kts 57°
2026-04-23 04:46 25.65209 126.85997 19313 ft 471 kts 57°
2026-04-23 04:46 25.66901 126.89094 18639 ft 467 kts 57°
2026-04-23 04:47 25.68577 126.92164 17945 ft 464 kts 57°
2026-04-23 04:47 25.70220 126.95185 17228 ft 459 kts 57°
2026-04-23 04:47 25.71866 126.98202 16542 ft 454 kts 57°
2026-04-23 04:47 25.73493 127.01186 15866 ft 448 kts 57°
2026-04-23 04:48 25.75094 127.04124 15216 ft 443 kts 57°
2026-04-23 04:48 25.76681 127.07039 14550 ft 439 kts 57°
2026-04-23 04:48 25.78254 127.09929 13886 ft 435 kts 57°
2026-04-23 04:48 25.79809 127.12789 13173 ft 430 kts 57°
2026-04-23 04:49 25.81345 127.15615 12509 ft 425 kts 57°
2026-04-23 04:49 25.82869 127.18420 11842 ft 425 kts 57°
2026-04-23 04:49 25.84394 127.21227 11292 ft 423 kts 58°
2026-04-23 04:49 25.85890 127.23984 11066 ft 407 kts 57°
2026-04-23 04:50 25.87314 127.26619 10899 ft 388 kts 57°
2026-04-23 04:50 25.88686 127.29129 10737 ft 371 kts 55°
2026-04-23 04:50 25.90370 127.31164 10569 ft 348 kts 31°
2026-04-23 04:50 25.92424 127.32417 10405 ft 328 kts 20°
2026-04-23 04:51 25.94474 127.33440 10148 ft 319 kts 19°
2026-04-23 04:51 25.96500 127.34435 9686 ft 318 kts 19°
2026-04-23 04:51 25.98484 127.35416 9330 ft 313 kts 19°
2026-04-23 04:51 26.00466 127.36405 9045 ft 311 kts 19°
2026-04-23 04:52 26.02435 127.37392 8698 ft 310 kts 19°
2026-04-23 04:52 26.04397 127.38378 8317 ft 309 kts 20°
2026-04-23 04:52 26.06352 127.39363 7958 ft 308 kts 20°
2026-04-23 04:52 26.08297 127.40345 7598 ft 307 kts 20°
2026-04-23 04:53 26.10240 127.41326 7240 ft 305 kts 20°
2026-04-23 04:53 26.12169 127.42302 6872 ft 304 kts 20°
2026-04-23 04:53 26.14089 127.43273 6513 ft 302 kts 20°
2026-04-23 04:53 26.16002 127.44241 6140 ft 302 kts 20°
2026-04-23 04:54 26.17909 127.45206 5764 ft 300 kts 20°
2026-04-23 04:54 26.19806 127.46167 5394 ft 299 kts 20°
2026-04-23 04:54 26.21698 127.47126 5038 ft 299 kts 20°
2026-04-23 04:54 26.23569 127.48073 4669 ft 298 kts 20°
2026-04-23 04:55 26.25457 127.49030 4279 ft 297 kts 20°
2026-04-23 04:55 26.27334 127.49983 3901 ft 295 kts 20°
2026-04-23 04:55 26.29205 127.50932 3548 ft 294 kts 20°
2026-04-23 04:55 26.31056 127.51873 3185 ft 291 kts 20°
2026-04-23 04:56 26.32792 127.53036 2823 ft 293 kts 40°
2026-04-23 04:56 26.33878 127.54932 2469 ft 292 kts 74°
2026-04-23 04:56 26.34128 127.57075 2329 ft 274 kts 89°
2026-04-23 04:56 26.34181 127.59139 2176 ft 259 kts 90°
2026-04-23 04:57 26.33876 127.61030 2072 ft 240 kts 121°
2026-04-23 04:57 26.32783 127.62254 2020 ft 213 kts 160°
2026-04-23 04:57 26.31445 127.62742 1912 ft 191 kts 184°
2026-04-23 04:57 26.30201 127.62630 1904 ft 173 kts 189°
2026-04-23 04:58 26.29012 127.62712 1749 ft 170 kts 181°
2026-04-23 04:58 26.27853 127.62828 1506 ft 165 kts 183°
2026-04-23 04:58 26.26727 127.62887 1282 ft 158 kts 184°
2026-04-23 04:58 26.25664 127.62950 1084 ft 148 kts 184°
2026-04-23 04:59 26.24666 127.63011 903 ft 139 kts 184°
2026-04-23 04:59 26.23732 127.63063 722 ft 134 kts 182°
2026-04-23 04:59 26.22814 127.63113 531 ft 132 kts 175°
2026-04-23 04:59 26.21908 127.63188 388 ft 130 kts 179°
2026-04-23 05:00 26.20991 127.63227 205 ft 133 kts 179°
2026-04-23 05:00 26.20087 127.63249 55 ft 125 kts 182°
2026-04-23 05:00 26.19293 127.63286 24 ft 92 kts 177°
2026-04-23 05:00 26.18842 127.63310 23 ft 37 kts 177°
2026-04-23 05:01 26.18725 127.63318 24 ft 12 kts 176°
2026-04-23 05:01 26.18614 127.63325 24 ft 19 kts 177°
2026-04-23 05:01 26.18482 127.63375 28 ft 20 kts 150°
2026-04-23 05:01 26.18384 127.63443 28 ft 9 kts 134°
2026-04-23 05:02 26.18385 127.63510 27 ft 9 kts 51°
2026-04-23 05:02 26.18423 127.63519 26 ft 7 kts
2026-04-23 05:02 26.18486 127.63517 26 ft 13 kts 358°
2026-04-23 05:02 26.18614 127.63512 26 ft 21 kts 357°
2026-04-23 05:03 26.18768 127.63504 24 ft 24 kts 357°
2026-04-23 05:03 26.18933 127.63495 24 ft 24 kts 358°
2026-04-23 05:03 26.19107 127.63488 25 ft 26 kts 358°
2026-04-23 05:03 26.19297 127.63478 24 ft 28 kts 357°
2026-04-23 05:04 26.19502 127.63469 26 ft 30 kts 358°
2026-04-23 05:04 26.19709 127.63461 26 ft 24 kts 359°
2026-04-23 05:04 26.19870 127.63454 26 ft 21 kts 358°
2026-04-23 05:04 26.20014 127.63446 24 ft 21 kts 357°
2026-04-23 05:05 26.20139 127.63439 24 ft 14 kts 357°
2026-04-23 05:05 26.20233 127.63435 25 ft 13 kts 358°
2026-04-23 05:05 26.20278 127.63439 28 ft 5 kts 16°
2026-04-23 05:05 26.20292 127.63453 26 ft 2 kts 56°
2026-04-23 05:06 26.20299 127.63490 27 ft 6 kts 79°
2026-04-23 05:06 26.20303 127.63534 24 ft 6 kts 87°
2026-04-23 05:06 26.20306 127.63624 27 ft 14 kts 88°
2026-04-23 05:06 26.20312 127.63802 23 ft 24 kts 88°
2026-04-23 05:07 26.20318 127.63974 27 ft 21 kts 87°
2026-04-23 05:07 26.20325 127.64133 26 ft 20 kts 87°
2026-04-23 05:07 26.20332 127.64284 27 ft 18 kts 87°
2026-04-23 05:07 26.20337 127.64422 24 ft 18 kts 88°
2026-04-23 05:08 26.20342 127.64583 24 ft 30 kts 88°
2026-04-23 05:08 26.20349 127.64703 27 ft 13 kts 75°
2026-04-23 05:08 26.20410 127.64752 27 ft 11 kts
2026-04-23 05:08 26.20486 127.64751 25 ft 12 kts 357°
2026-04-23 05:09 26.20573 127.64746 25 ft 13 kts 357°
2026-04-23 05:09 26.20670 127.64740 24 ft 14 kts 357°
2026-04-23 05:09 26.20771 127.64737 25 ft 15 kts 358°
2026-04-23 05:09 26.20870 127.64744 27 ft 14 kts 24°
2026-04-23 05:10 26.20915 127.64823 28 ft 12 kts 85°
2026-04-23 05:10 26.20959 127.64880 31 ft 9 kts 12°
2026-04-23 05:10 26.21003 127.64891 26 ft 2 kts 42°
2026-04-23 05:10 26.21004 127.64899 27 ft 1 kts 73°
2026-04-23 05:11 26.21004 127.64912 27 ft 2 kts 87°
2026-04-23 05:11 26.21004 127.64923 27 ft 1 kts 87°
2026-04-23 05:11 26.21005 127.64939 27 ft 5 kts 87°
2026-04-23 05:11 26.21006 127.64971 28 ft 0 kts 87°
2026-04-23 05:12 26.21006 127.64972 28 ft 1 kts 88°
2026-04-23 05:12 26.21006 127.64973 28 ft 0 kts 88°